AAR505 RKSS-RKPC

Flight info

Callsign AAR505
Flight time 0h 49m
Altitude 24000
Route BULTI Y711 DOTOL DOTOL
Aircraft A333/H-SDE3GHIJ2J3J5M1RVWXY/LB2D1

Departure

Time 2026-05-05 11:27
Airport Gimpo International Airport (RKSS)

Arrival

Time 2026-05-05 12:16
Airport Jeju International Airport (RKPC)
Time Latitude Longitude Altitude Speed Heading
2026-05-05 10:55 37.55758 126.80329 71 ft 0 kts 44°
2026-05-05 11:13 37.55750 126.80318 71 ft 4 kts 48°
2026-05-05 11:13 37.55733 126.80292 68 ft 4 kts 58°
2026-05-05 11:13 37.55721 126.80262 61 ft 4 kts 71°
2026-05-05 11:13 37.55715 126.80229 61 ft 4 kts 86°
2026-05-05 11:14 37.55716 126.80196 61 ft 4 kts 109°
2026-05-05 11:14 37.55726 126.80173 61 ft 0 kts 135°
2026-05-05 11:17 37.55709 126.80195 61 ft 5 kts 134°
2026-05-05 11:17 37.55677 126.80236 62 ft 8 kts 134°
2026-05-05 11:18 37.55633 126.80291 61 ft 10 kts 137°
2026-05-05 11:18 37.55572 126.80296 65 ft 10 kts 208°
2026-05-05 11:18 37.55523 126.80245 60 ft 0 kts 223°
2026-05-05 11:19 37.55485 126.80193 64 ft 14 kts 238°
2026-05-05 11:19 37.55521 126.80071 64 ft 17 kts 314°
2026-05-05 11:19 37.55607 126.79962 60 ft 18 kts 316°
2026-05-05 11:19 37.55698 126.79848 63 ft 18 kts 314°
2026-05-05 11:20 37.55742 126.79792 60 ft 0 kts 315°
2026-05-05 11:20 37.55762 126.79766 61 ft 8 kts 315°
2026-05-05 11:21 37.55817 126.79699 60 ft 13 kts 316°
2026-05-05 11:21 37.55883 126.79615 62 ft 14 kts 314°
2026-05-05 11:21 37.55957 126.79522 60 ft 16 kts 315°
2026-05-05 11:21 37.56038 126.79420 63 ft 17 kts 315°
2026-05-05 11:22 37.56125 126.79309 60 ft 19 kts 314°
2026-05-05 11:22 37.56219 126.79189 63 ft 20 kts 315°
2026-05-05 11:22 37.56319 126.79066 60 ft 21 kts 315°
2026-05-05 11:22 37.56422 126.78938 63 ft 21 kts 315°
2026-05-05 11:23 37.56523 126.78809 60 ft 21 kts 315°
2026-05-05 11:23 37.56628 126.78677 60 ft 19 kts 315°
2026-05-05 11:23 37.56718 126.78564 60 ft 19 kts 315°
2026-05-05 11:23 37.56814 126.78443 60 ft 20 kts 314°
2026-05-05 11:24 37.56916 126.78315 64 ft 21 kts 315°
2026-05-05 11:24 37.57023 126.78180 63 ft 22 kts 315°
2026-05-05 11:24 37.57126 126.78051 59 ft 16 kts 315°
2026-05-05 11:24 37.57139 126.77952 58 ft 7 kts 231°
2026-05-05 11:25 37.57137 126.77948 57 ft 0 kts 229°
2026-05-05 11:25 37.57108 126.77908 58 ft 12 kts 227°
2026-05-05 11:25 37.57035 126.77879 54 ft 12 kts 153°
2026-05-05 11:26 37.56982 126.77939 54 ft 25 kts 136°
2026-05-05 11:26 37.56690 126.78306 58 ft 93 kts 135°
2026-05-05 11:26 37.56089 126.79063 58 ft 149 kts 135°
2026-05-05 11:26 37.55261 126.80106 286 ft 181 kts 135°
2026-05-05 11:27 37.54353 126.81262 892 ft 184 kts 136°
2026-05-05 11:27 37.53476 126.82385 1845 ft 176 kts 139°
2026-05-05 11:27 37.52598 126.83482 2447 ft 186 kts 141°
2026-05-05 11:27 37.51609 126.84690 2776 ft 209 kts 140°
2026-05-05 11:28 37.50483 126.86014 3064 ft 232 kts 145°
2026-05-05 11:28 37.49043 126.87024 3513 ft 244 kts 161°
2026-05-05 11:28 37.47394 126.87743 4098 ft 257 kts 165°
2026-05-05 11:28 37.45691 126.88410 4938 ft 263 kts 166°
2026-05-05 11:29 37.43927 126.89098 5613 ft 268 kts 165°
2026-05-05 11:29 37.42139 126.89802 5943 ft 271 kts 165°
2026-05-05 11:29 37.40336 126.90517 6016 ft 272 kts 165°
2026-05-05 11:29 37.38528 126.91237 6009 ft 273 kts 165°
2026-05-05 11:30 37.36769 126.92170 6053 ft 276 kts 153°
2026-05-05 11:30 37.35137 126.93476 6556 ft 280 kts 148°
2026-05-05 11:30 37.33519 126.94867 7321 ft 283 kts 148°
2026-05-05 11:30 37.31898 126.96272 7816 ft 284 kts 148°
2026-05-05 11:31 37.30289 126.97663 7996 ft 285 kts 148°
2026-05-05 11:31 37.28653 126.99074 8003 ft 286 kts 148°
2026-05-05 11:31 37.27007 127.00490 8006 ft 286 kts 148°
2026-05-05 11:31 37.25362 127.01889 8010 ft 286 kts 150°
2026-05-05 11:32 37.23562 127.02860 8156 ft 281 kts 172°
2026-05-05 11:32 37.21635 127.02832 8786 ft 279 kts 194°
2026-05-05 11:32 37.19756 127.02213 9799 ft 280 kts 199°
2026-05-05 11:32 37.17862 127.01483 10538 ft 293 kts 199°
2026-05-05 11:33 37.15845 127.00691 10893 ft 316 kts 199°
2026-05-05 11:33 37.13723 126.99865 11455 ft 330 kts 198°
2026-05-05 11:33 37.11505 126.99010 12180 ft 337 kts 198°
2026-05-05 11:33 37.09236 126.98140 12947 ft 344 kts 197°
2026-05-05 11:34 37.06931 126.97259 13728 ft 349 kts 197°
2026-05-05 11:34 37.04586 126.96363 14422 ft 355 kts 197°
2026-05-05 11:34 37.02208 126.95455 15103 ft 359 kts 197°
2026-05-05 11:34 36.99810 126.94541 15674 ft 361 kts 196°
2026-05-05 11:35 36.97398 126.93621 15958 ft 363 kts 196°
2026-05-05 11:35 36.94971 126.92698 16031 ft 365 kts 196°
2026-05-05 11:35 36.92581 126.91738 16123 ft 367 kts 199°
2026-05-05 11:35 36.90164 126.90655 16629 ft 371 kts 199°
2026-05-05 11:36 36.87729 126.89541 17391 ft 373 kts 199°
2026-05-05 11:36 36.85282 126.88421 18101 ft 377 kts 199°
2026-05-05 11:36 36.82808 126.87290 18721 ft 380 kts 199°
2026-05-05 11:36 36.80312 126.86150 19338 ft 383 kts 199°
2026-05-05 11:37 36.77800 126.85006 19933 ft 386 kts 199°
2026-05-05 11:37 36.75264 126.83852 20516 ft 390 kts 199°
2026-05-05 11:37 36.72720 126.82847 21097 ft 392 kts 191°
2026-05-05 11:37 36.69999 126.82437 21690 ft 394 kts 183°
2026-05-05 11:38 36.67253 126.82377 22258 ft 397 kts 178°
2026-05-05 11:38 36.64481 126.82498 22810 ft 400 kts 176°
2026-05-05 11:38 36.61688 126.82689 23359 ft 403 kts 176°
2026-05-05 11:38 36.58875 126.82888 23825 ft 406 kts 176°
2026-05-05 11:39 36.56049 126.83067 24030 ft 406 kts 178°
2026-05-05 11:39 36.53255 126.83217 24067 ft 399 kts 178°
2026-05-05 11:39 36.50494 126.83341 24072 ft 396 kts 179°
2026-05-05 11:39 36.47783 126.83449 24071 ft 395 kts 179°
2026-05-05 11:40 36.45037 126.83550 24075 ft 395 kts 179°
2026-05-05 11:40 36.42287 126.83650 24078 ft 395 kts 179°
2026-05-05 11:40 36.39537 126.83718 24076 ft 395 kts 182°
2026-05-05 11:40 36.36793 126.83541 24078 ft 395 kts 184°
2026-05-05 11:41 36.34053 126.83302 24080 ft 395 kts 185°
2026-05-05 11:41 36.31318 126.83022 24080 ft 394 kts 186°
2026-05-05 11:41 36.28584 126.82720 24087 ft 394 kts 186°
2026-05-05 11:41 36.25855 126.82412 24086 ft 394 kts 186°
2026-05-05 11:42 36.23161 126.82108 24086 ft 394 kts 186°
2026-05-05 11:42 36.20425 126.81803 24088 ft 394 kts 186°
2026-05-05 11:42 36.17697 126.81502 24088 ft 394 kts 186°
2026-05-05 11:42 36.14961 126.81203 24087 ft 394 kts 186°
2026-05-05 11:43 36.12228 126.80906 24090 ft 394 kts 186°
2026-05-05 11:43 36.09497 126.80609 24089 ft 394 kts 186°
2026-05-05 11:43 36.06762 126.80313 24088 ft 394 kts 186°
2026-05-05 11:43 36.04031 126.80016 24084 ft 394 kts 186°
2026-05-05 11:44 36.01297 126.79720 24087 ft 394 kts 186°
2026-05-05 11:44 35.98604 126.79428 24084 ft 394 kts 186°
2026-05-05 11:44 35.95871 126.79133 24084 ft 394 kts 186°
2026-05-05 11:44 35.93142 126.78838 24083 ft 394 kts 186°
2026-05-05 11:45 35.90415 126.78543 24092 ft 393 kts 186°
2026-05-05 11:45 35.87688 126.78248 24083 ft 393 kts 186°
2026-05-05 11:45 35.84966 126.77953 24103 ft 393 kts 186°
2026-05-05 11:45 35.82238 126.77657 24108 ft 393 kts 186°
2026-05-05 11:46 35.79513 126.77362 24107 ft 393 kts 186°
2026-05-05 11:46 35.76788 126.77067 24107 ft 393 kts 186°
2026-05-05 11:46 35.74101 126.76777 24109 ft 392 kts 186°
2026-05-05 11:46 35.71385 126.76483 24110 ft 392 kts 186°
2026-05-05 11:47 35.68669 126.76190 24106 ft 392 kts 186°
2026-05-05 11:47 35.65953 126.75897 24113 ft 392 kts 186°
2026-05-05 11:47 35.63239 126.75604 24112 ft 392 kts 186°
2026-05-05 11:47 35.60522 126.75312 24113 ft 392 kts 186°
2026-05-05 11:48 35.55101 126.74730 24119 ft 390 kts 187°
2026-05-05 11:48 35.52398 126.74435 24111 ft 390 kts 187°
2026-05-05 11:48 35.49689 126.74143 24114 ft 391 kts 187°
2026-05-05 11:49 35.46983 126.73853 24122 ft 391 kts 187°
2026-05-05 11:49 35.44268 126.73563 24110 ft 391 kts 187°
2026-05-05 11:49 35.41595 126.73278 24116 ft 391 kts 187°
2026-05-05 11:49 35.38887 126.72989 24119 ft 391 kts 187°
2026-05-05 11:50 35.36179 126.72701 24120 ft 390 kts 187°
2026-05-05 11:50 35.33476 126.72413 24120 ft 390 kts 187°
2026-05-05 11:50 35.30777 126.72125 24121 ft 390 kts 187°
2026-05-05 11:50 35.28076 126.71837 24112 ft 389 kts 187°
2026-05-05 11:51 35.25374 126.71548 24128 ft 389 kts 187°
2026-05-05 11:51 35.22715 126.71264 24121 ft 390 kts 187°
2026-05-05 11:51 35.20012 126.70976 24114 ft 389 kts 187°
2026-05-05 11:51 35.17315 126.70690 24120 ft 389 kts 188°
2026-05-05 11:52 35.14624 126.70405 24122 ft 388 kts 188°
2026-05-05 11:52 35.11938 126.70120 24123 ft 387 kts 188°
2026-05-05 11:52 35.09254 126.69834 24129 ft 387 kts 188°
2026-05-05 11:52 35.06568 126.69548 24127 ft 387 kts 188°
2026-05-05 11:53 35.03882 126.69263 24131 ft 390 kts 188°
2026-05-05 11:53 35.01124 126.68966 24131 ft 406 kts 188°
2026-05-05 11:53 34.98253 126.68655 24127 ft 422 kts 188°
2026-05-05 11:53 34.95326 126.68340 24135 ft 432 kts 188°
2026-05-05 11:54 34.92348 126.68026 23954 ft 424 kts 188°
2026-05-05 11:54 34.89448 126.67727 23725 ft 413 kts 188°
2026-05-05 11:54 34.86599 126.67433 23461 ft 410 kts 188°
2026-05-05 11:54 34.83759 126.67135 23187 ft 409 kts 188°
2026-05-05 11:55 34.80927 126.66836 22915 ft 408 kts 188°
2026-05-05 11:55 34.78100 126.66537 22651 ft 407 kts 188°
2026-05-05 11:55 34.75287 126.66240 22398 ft 405 kts 188°
2026-05-05 11:55 34.72526 126.65949 22130 ft 403 kts 188°
2026-05-05 11:56 34.69733 126.65654 21870 ft 402 kts 188°
2026-05-05 11:56 34.66952 126.65360 21611 ft 401 kts 187°
2026-05-05 11:56 34.64174 126.65068 21362 ft 400 kts 187°
2026-05-05 11:56 34.61409 126.64778 21098 ft 398 kts 187°
2026-05-05 11:57 34.58652 126.64489 20839 ft 397 kts 187°
2026-05-05 11:57 34.55908 126.64201 20586 ft 395 kts 187°
2026-05-05 11:57 34.53173 126.63915 20348 ft 394 kts 187°
2026-05-05 11:57 34.50485 126.63634 20107 ft 393 kts 187°
2026-05-05 11:58 34.47766 126.63349 19868 ft 392 kts 187°
2026-05-05 11:58 34.45058 126.63066 19580 ft 389 kts 187°
2026-05-05 11:58 34.42384 126.62788 18785 ft 382 kts 187°
2026-05-05 11:58 34.39748 126.62512 17692 ft 379 kts 187°
2026-05-05 11:59 34.37135 126.62239 16801 ft 375 kts 187°
2026-05-05 11:59 34.34540 126.61968 16314 ft 374 kts 187°
2026-05-05 11:59 34.31972 126.61701 15587 ft 367 kts 187°
2026-05-05 11:59 34.29436 126.61437 14704 ft 362 kts 186°
2026-05-05 12:00 34.26935 126.61176 14434 ft 361 kts 186°
2026-05-05 12:00 34.24463 126.60919 14207 ft 362 kts 186°
2026-05-05 12:00 34.21954 126.60657 13975 ft 361 kts 186°
2026-05-05 12:00 34.19464 126.60397 13712 ft 358 kts 186°
2026-05-05 12:01 34.16985 126.60139 13450 ft 357 kts 186°
2026-05-05 12:01 34.14516 126.59882 13188 ft 356 kts 186°
2026-05-05 12:01 34.12054 126.59626 12931 ft 354 kts 186°
2026-05-05 12:01 34.09653 126.59378 12771 ft 339 kts 186°
2026-05-05 12:02 34.07363 126.59142 12651 ft 323 kts 186°
2026-05-05 12:02 34.05188 126.58917 12453 ft 312 kts 186°
2026-05-05 12:02 34.03047 126.58695 12141 ft 305 kts 186°
2026-05-05 12:02 34.00976 126.58414 12043 ft 294 kts 193°
2026-05-05 12:03 33.99066 126.57603 12048 ft 291 kts 210°
2026-05-05 12:03 33.97398 126.56222 12050 ft 291 kts 219°
2026-05-05 12:03 33.95815 126.54692 12049 ft 292 kts 220°
2026-05-05 12:03 33.94242 126.53142 12049 ft 292 kts 220°
2026-05-05 12:04 33.92669 126.51597 12045 ft 292 kts 220°
2026-05-05 12:04 33.91112 126.50100 12023 ft 289 kts 217°
2026-05-05 12:04 33.89400 126.48812 11510 ft 294 kts 210°
2026-05-05 12:04 33.87565 126.47608 10722 ft 306 kts 208°
2026-05-05 12:05 33.85673 126.46423 10319 ft 303 kts 208°
2026-05-05 12:05 33.83828 126.45285 10140 ft 293 kts 207°
2026-05-05 12:05 33.82037 126.44185 9842 ft 287 kts 207°
2026-05-05 12:05 33.80267 126.43102 9445 ft 284 kts 207°
2026-05-05 12:06 33.78507 126.42026 9035 ft 283 kts 207°
2026-05-05 12:06 33.76763 126.40961 8653 ft 280 kts 207°
2026-05-05 12:06 33.75030 126.39904 8232 ft 279 kts 207°
2026-05-05 12:06 33.73325 126.38865 7823 ft 278 kts 207°
2026-05-05 12:07 33.71608 126.37819 7447 ft 276 kts 208°
2026-05-05 12:07 33.69901 126.36779 7058 ft 275 kts 208°
2026-05-05 12:07 33.68196 126.35742 6700 ft 274 kts 208°
2026-05-05 12:07 33.66502 126.34710 6299 ft 273 kts 208°
2026-05-05 12:08 33.64810 126.33682 5903 ft 271 kts 207°
2026-05-05 12:08 33.63128 126.32661 5493 ft 271 kts 208°
2026-05-05 12:08 33.61453 126.31643 5144 ft 268 kts 207°
2026-05-05 12:08 33.59817 126.30650 4974 ft 257 kts 208°
2026-05-05 12:09 33.58266 126.29709 4761 ft 243 kts 208°
2026-05-05 12:09 33.56805 126.28822 4442 ft 234 kts 208°
2026-05-05 12:09 33.55367 126.27950 4114 ft 230 kts 208°
2026-05-05 12:09 33.53946 126.27088 4020 ft 229 kts 207°
2026-05-05 12:10 33.52522 126.26225 4047 ft 229 kts 207°
2026-05-05 12:10 33.51103 126.25365 4045 ft 228 kts 207°
2026-05-05 12:10 33.49681 126.24504 4028 ft 229 kts 207°
2026-05-05 12:10 33.48214 126.23768 3966 ft 229 kts 197°
2026-05-05 12:11 33.46627 126.23639 3575 ft 230 kts 173°
2026-05-05 12:11 33.45169 126.24333 3372 ft 223 kts 148°
2026-05-05 12:11 33.44109 126.25630 3198 ft 216 kts 127°
2026-05-05 12:11 33.43360 126.27150 3005 ft 208 kts 121°
2026-05-05 12:12 33.42721 126.28619 2930 ft 198 kts 118°
2026-05-05 12:12 33.42323 126.30196 2925 ft 201 kts 94°
2026-05-05 12:12 33.42517 126.31795 2905 ft 187 kts 78°
2026-05-05 12:12 33.42996 126.33208 2747 ft 182 kts 63°
2026-05-05 12:13 33.43654 126.34498 2486 ft 180 kts 61°
2026-05-05 12:13 33.44307 126.35770 2230 ft 179 kts 61°
2026-05-05 12:13 33.44952 126.37033 1992 ft 177 kts 62°
2026-05-05 12:13 33.45579 126.38260 1735 ft 168 kts 61°
2026-05-05 12:14 33.46163 126.39397 1527 ft 156 kts 62°
2026-05-05 12:14 33.46711 126.40465 1329 ft 144 kts 62°
2026-05-05 12:14 33.47215 126.41448 1140 ft 134 kts 63°
2026-05-05 12:14 33.47702 126.42400 981 ft 134 kts 63°
2026-05-05 12:15 33.48199 126.43338 787 ft 132 kts 60°
2026-05-05 12:15 33.48686 126.44265 658 ft 131 kts 61°
2026-05-05 12:15 33.49152 126.45192 474 ft 128 kts 60°
2026-05-05 12:15 33.49611 126.46097 314 ft 125 kts 59°
2026-05-05 12:16 33.50060 126.46981 149 ft 124 kts 59°
2026-05-05 12:16 33.50438 126.47718 139 ft 79 kts 59°
2026-05-05 12:16 33.50679 126.48188 139 ft 67 kts 59°
2026-05-05 12:16 33.50764 126.48566 139 ft 31 kts 89°
2026-05-05 12:17 33.50774 126.48734 139 ft 11 kts 76°
2026-05-05 12:17 33.50828 126.48863 139 ft 20 kts 57°
2026-05-05 12:17 33.50900 126.48993 138 ft 19 kts 56°
2026-05-05 12:17 33.50969 126.49133 138 ft 20 kts 59°
2026-05-05 12:18 33.51026 126.49240 138 ft 15 kts 57°
2026-05-05 12:18 33.51015 126.49349 138 ft 15 kts 137°
2026-05-05 12:18 33.50950 126.49384 138 ft 9 kts 180°
2026-05-05 12:18 33.50879 126.49377 138 ft 11 kts 181°
2026-05-05 12:19 33.50808 126.49377 138 ft 3 kts 180°
2026-05-05 12:19 33.50787 126.49376 138 ft 2 kts 180°
2026-05-05 12:19 33.50781 126.49376 138 ft 0 kts 180°